Showing default

GONETS M 14 (M24), 44905

Orbit data source: Space-Track

GONETS M 14 (M24), 44905 is a payload satellite owned by Gonets (CIS) in LEO that was launched on Thu, 26 Dec 2019 UTC via an ROKOT launch vehicle from the Plesetsk Missile And Space Complex (PKMTR). Payload-class satellites include a variety of spacecraft equipped with specific instruments for various scientific and technological missions. These include communications satellites like Starlink; space stations such as the ISS; scientific satellites like the Hubble; Earth observation satellites from companies like Planet Labs, Umbra, and HawkEye 360; GPS; miniature CubeSats for education and research; and military/defense satellites.

Loading next visibility...
Identifier
44905, 2019-096A
Orbit
LEO
Country
Flag of CISCIS
Related business
Manufacturer
Resehetnev ISS
Mission
Operational Commercial Communications
Bus & Motor
STRELA-3M, Unknown motor
Mass
225 kg wet, 225 kg dry
Launch date (UTC)
2019-12-26 (6 years ago)
Launch vehicle
ROKOT
Launch site
Plesetsk Missile And Space Complex (PKMTR)
Object type
Payload
Rocket body
Debris
Shape & HBR
Cyl + 1 Ant, 3.5 m
Radar Cross Section
1.798 m², Large (>1 m²)

Expand to show TLE details & history
Last TLE update: 15 hours ago

TLE from 15 hours ago
0 GONETS M 14 (M24)
1 44905U 19096A   25311.27727009  .00000047  00000-0  26710-3 0  9993
2 44905  82.5255 222.1796 0012767 281.1767  78.7878 12.42898689266113
Epoch: 2025-11-07T06:39Z
TLE epoch observation values (Epoch: 2025-11-07T06:39:16.135Z)
Latitude
0.00003°
Longitude
75.63883°
Altitude
1,495.097 km
Speed
7.117 km/s
True Right ascension
14h 48m 43s
True Declination
0° 00' 00"
Sunlit
Object was in daylight at epoch
Visualization orbit readout
Latitude
Unknown
Longitude
Unknown
Altitude
Unknown
Speed
Unknown
Apparent Right ascension
Unknown
Apparent Declination
Unknown
Sunlit
N/A
Visualization observer readout
Local Sidereal Time
17:41:52
Azimuth
Unknown
Elevation
Unknown
Doppler factor
Unknown
Orbital elements
Apogee altitude
1,501.737 km
Perigee altitude
1,481.642 km
Semi-major axis
7,869.826 km
Eccentricity
0.00128
Inclination
82.5255°
RAAN
222.1796°
Arg. of periapsis
281.1767°
True anomaly
78.93135°
Mean anomaly
78.7878°
Eccentric anomaly
78.85957°
Mean motion
3.10882 °/min
Orbital period
115.8 mins
BSTAR
0.0002671
Loading maneuver chart data...
Computing Atmospheric mass density...
Loading historical data...
Loading historical data...
Loading historical data...
Loading historical data...
Loading historical data...
Loading historical data...
Loading historical data...
Other satellites on launch #96 in the year 2019 (2019-12-26 UTC)

Documentation

Showing up to 5 results
|